Regional Weather Roundup
Issued by NWS Kansas City/Pleasant Hill, MO

Home | Current Version | Previous Version | Graphics & Text | Print | Product List | Glossary Off
Versions: 1 2 3 4 5 6 7 8 9 10 11 12 13 14 15 16 17 18 19 20 21 22 23 24 25 26 27 28 29 30 31 32 33 34 35 36 37 38 39 40 41 42 43 44 45 46 47 48 49 50

000
ASUS43 KEAX 071610
RWREAX

WEATHER ROUNDUP FOR EASTERN KANSAS AND NORTHWEST MISSOURI
NATIONAL WEATHER SERVICE KANSAS CITY/PLEASANT HILL MO
1100 AM CDT TUE JUL 07 2015

KSZ040-057-103>105-MOZ028-029-037-043-071700-
...KANSAS CITY METROPOLITAN AREA...

CITY           SKY/WX    TMP DP  RH WIND       PRES   REMARKS
K.C. INTL      CLOUDY    66  59  78 N10       30.08R
K.C. DOWNTOWN  PTSUNNY   70  60  70 NE9       30.07R HAZE
LEES SUMMIT    CLOUDY    67  60  78 N13       30.07R HAZE
OLATHE - IXD   PTSUNNY   66  61  84 N13       30.08R HAZE
OLATHE - OJC   CLOUDY    65  59  81 N14       30.06S HAZE
LAWRENCE       PTSUNNY   67  58  72 N8        30.08S

$$

MOZ001>008-011>017-020>025-030>033-038>040-044>046-053-054-071700-
...NORTHERN AND CENTRAL MISSOURI...

CITY           SKY/WX    TMP DP  RH WIND       PRES   REMARKS
ST. JOSEPH     MOSUNNY   67  58  72 MISG      30.09S
MOSBY          PTSUNNY   66  57  72 N10       30.07S
WARRENSBURG    CLOUDY    64  59  82 N6        30.05R HAZE
WHITEMAN AFB   PTSUNNY   65  60  83 N10       30.04R FOG
CLINTON        CLOUDY    64  61  88 N13       30.03R FOG
SEDALIA        CLOUDY    65  60  84 N13       30.05R HAZE
WARSAW         NOT AVBL
CHILLICOTHE      N/A     70  60  70 N8        30.07R
KIRKSVILLE     LGT RAIN  69  57  65 N14G21    30.05R

$$

MOZ041-047>049-056>058-063>065-088>090-097-071700-
...EASTERN AND SOUTHERN MISSOURI...

CITY           SKY/WX    TMP DP  RH WIND       PRES   REMARKS
ST. LOUIS INTL CLOUDY    71  67  87 NW10      29.97R FOG
SPIRIT OF STL  CLOUDY    71  69  93 N6        29.96R FOG
COLUMBIA       CLOUDY    66  63  90 N14       30.01R FOG
ROLLA          CLOUDY    70  68  93 NW10      29.98R
OSAGE BEACH    CLOUDY    66  64  94 N7        30.00R
SPRINGFIELD    CLOUDY    75  72  90 S7        29.98S
BRANSON        LGT RAIN  72  70  94 CALM      30.03R FOG
JOPLIN         CLOUDY    67  66  97 N10       30.01R FOG
WEST PLAINS    RAIN      73  70  90 NW5       30.02R FOG

$$

IAZ060-094-KSZ022-034>040-054-083-096-NEZ052-066-093-071700-
...KANSAS...SOUTHEAST NEBRASKA AND IOWA...

CITY           SKY/WX    TMP DP  RH WIND       PRES   REMARKS
TOPEKA         PTSUNNY   67  56  67 N14       30.09S
MANHATTAN      MOSUNNY   70  50  49 NE17G26   30.12R
EMPORIA        CLOUDY    65  58  78 N13       30.08S
CHANUTE        LGT RAIN  63  61  93 NE12      30.04S FOG
WICHITA        CLOUDY    67  61  81 N17       30.08R HAZE
OMAHA          MOSUNNY   66  48  52 N20       30.15F
LINCOLN        SUNNY     67  49  52 NE17G25   30.17F
FALLS CITY       N/A     66  52  60 NE13      30.11F
LAMONI         MOSUNNY   67  57  70 N15       30.09S
DES MOINES     MOSUNNY   68  53  58 NE12      30.10S

$$




USA.gov is the U.S. government's official web portal to all federal, state and local government web resources and services.